Date,TemperatureHighF,TemperatureAvgF,TemperatureLowF,DewpointHighF,DewpointAvgF,DewpointLowF,HumidityHigh,HumidityAvg,HumidityLow,PressureMaxIn,PressureMinIn,WindSpeedMaxMPH,WindSpeedAvgMPH,GustSpeedMaxMPH,PrecipitationSumIn
2013-1-1,61.0,44.9,33.0,41.0,33.1,26.0,99,69,26,0.00,40.00,6,3,12,0.00
2013-1-2,68.0,46.4,35.0,34.0,28.7,24.0,78,55,21,0.00,40.00,8,3,18,0.00
2013-1-3,71.0,46.6,33.0,34.0,29.8,24.0,86,57,19,0.00,40.00,8,3,16,0.00
2013-1-4,70.0,45.1,32.0,33.0,27.4,15.0,84,56,12,0.00,40.00,7,3,31,0.00
2013-1-5,67.0,46.3,32.0,40.0,33.1,19.0,85,64,16,0.00,40.00,5,2,16,0.00
2013-1-6,54.0,45.6,40.0,50.0,43.3,38.0,100,92,63,0.00,40.00,10,4,44,0.05
2013-1-7,66.0,48.8,38.0,45.0,38.7,31.0,99,73,32,0.00,40.00,8,3,58,0.01
2013-1-8,80.0,52.4,35.0,40.0,36.5,30.0,96,62,16,0.00,40.00,6,3,11,0.00
2013-1-9,70.0,50.5,41.0,52.0,42.2,35.0,99,77,28,0.00,40.00,3,2,10,0.00
2013-1-10,58.0,48.6,40.0,48.0,30.5,18.0,99,56,25,0.00,40.00,11,6,33,0.00
2013-1-11,54.0,42.0,32.0,29.0,22.5,15.0,74,48,22,0.00,40.00,9,4,30,0.00
2013-1-12,57.0,40.2,32.0,28.0,25.0,18.0,79,59,24,0.00,40.00,9,4,36,0.00
2013-1-13,57.0,39.6,29.0,31.0,26.9,19.0,91,65,22,0.00,40.00,9,4,20,0.00
2013-1-14,56.0,40.3,29.0,27.0,16.0,4.0,67,40,19,0.00,40.00,7,4,55,0.00
2013-1-15,64.0,43.0,29.0,31.0,25.0,20.0,76,53,20,0.00,40.00,7,4,14,0.00
2013-1-17,82.0,57.6,34.0,36.0,28.2,20.0,82,39,10,0.00,40.00,7,3,51,0.00
2013-1-18,81.0,58.6,37.0,34.0,26.6,15.0,63,35,9,0.00,40.00,6,3,11,0.00
2013-1-19,80.0,57.4,35.0,33.0,22.0,13.0,59,31,8,0.00,40.00,6,3,14,0.00
2013-1-20,83.0,58.6,36.0,32.0,22.3,15.0,55,30,8,0.00,40.00,7,3,11,0.00
2013-1-21,82.0,56.1,38.0,32.0,22.1,8.0,52,30,6,0.00,40.00,5,3,12,0.00
2013-1-22,82.0,58.8,36.0,34.0,24.6,16.0,53,31,9,0.00,40.00,9,3,20,0.00
2013-1-23,67.0,55.1,45.0,51.0,35.1,28.0,99,49,27,0.00,40.00,6,3,30,0.01
2013-1-24,62.0,55.4,51.0,60.0,55.2,51.0,100,99,88,0.00,40.00,5,2,10,1.02
2013-1-25,60.0,56.2,54.0,60.0,56.2,54.0,100,100,100,0.00,40.00,3,2,12,0.59
2013-1-26,71.0,57.7,49.0,61.0,54.4,49.0,100,91,61,0.00,40.00,7,3,40,0.38
2013-1-27,63.0,52.3,44.0,55.0,40.6,24.0,100,71,26,0.00,40.00,9,4,25,0.06
2013-1-28,61.0,49.4,37.0,30.0,26.5,22.0,71,43,27,0.00,40.00,11,6,30,0.01
2013-1-29,63.0,47.5,38.0,37.0,32.6,25.0,95,60,31,0.00,40.00,10,3,40,0.00
2013-1-30,75.0,51.1,35.0,44.0,37.6,35.0,99,68,25,0.00,40.00,8,3,18,0.00
2013-1-31,80.0,59.4,38.0,44.0,40.8,38.0,99,56,23,0.00,40.00,7,4,32,0.00